Showing default

COSMOS 1909, 18788

Orbit data source: Space-Track

COSMOS 1909, 18788 is a payload satellite owned by UNKS (CIS) in LEO that was launched on Fri, 15 Jan 1988 UTC via a TSIKLON-3 launch vehicle from the Plesetsk Missile And Space Complex (PKMTR). Payload-class satellites include a variety of spacecraft equipped with specific instruments for various scientific and technological missions. These include communications satellites like Starlink; space stations such as the ISS; scientific satellites like the Hubble; Earth observation satellites from companies like Planet Labs, Umbra, and HawkEye 360; GPS; miniature CubeSats for education and research; and military/defense satellites.

Loading next visibility...
Identifier
18788, 1988-002A
Orbit
LEO
Country
Flag of CISCIS
Related business
Manufacturer
NPO PM
Mission
Defense Communications
Bus & Motor
STRELA-3, Unknown motor
Mass
225 kg wet, 225 kg dry
Launch date (UTC)
1988-01-15 (38 years ago)
Launch vehicle
TSIKLON-3
Launch site
Plesetsk Missile And Space Complex (PKMTR)
Object type
Payload
Rocket body
Debris
Shape & HBR
Cyl, 0.8 m
Radar Cross Section
1.257 m², Large (>1 m²)

Expand to show TLE details & history
Last TLE update: 13 hours ago

TLE from 13 hours ago
0 COSMOS 1909
1 18788U 88002A   25297.29158770  .00000031  00000-0  11270-3 0  9992
2 18788  82.6105  67.4599 0002516 127.1345 254.5965 12.62862471741033
Epoch: 2025-10-24T06:59Z
TLE epoch observation values (Epoch: 2025-10-24T06:59:53.177Z)
Latitude
21.52395°
Longitude
-67.53284°
Altitude
1,414.157 km
Speed
7.155 km/s
True Right ascension
04h 41m 30s
True Declination
21° 25' 00"
Sunlit
Object was in full shadow at epoch
Visualization orbit readout
Latitude
Unknown
Longitude
Unknown
Altitude
Unknown
Speed
Unknown
Apparent Right ascension
Unknown
Apparent Declination
Unknown
Sunlit
N/A
Visualization observer readout
Local Sidereal Time
15:41:44
Azimuth
Unknown
Elevation
Unknown
Doppler factor
Unknown
Orbital elements
Apogee altitude
1,410.43 km
Perigee altitude
1,406.511 km
Semi-major axis
7,786.607 km
Eccentricity
0.00025
Inclination
82.6105°
RAAN
67.4599°
Arg. of periapsis
127.1345°
True anomaly
254.56871°
Mean anomaly
254.5965°
Eccentric anomaly
254.5826°
Mean motion
3.15879 °/min
Orbital period
113.97 mins
BSTAR
0.0001127
Loading maneuver chart data...
Computing Atmospheric mass density...
Loading historical data...
Loading historical data...
Loading historical data...
Loading historical data...
Loading historical data...
Loading historical data...
Loading historical data...

Documentation

Showing up to 5 results
|